Time,TemperatureF,DewpointF,PressureIn,WindDirection,WindDirectionDegrees,WindSpeedMPH,WindSpeedGustMPH,Humidity,HourlyPrecipIn,Conditions,Clouds,dailyrainin,SoftwareType,DateUTC
2013-01-15 00:02:00,41.0,40.0,30.07,NNW,329,1.0,3.0,97,0.05,,,0.76,,2013-01-15 06:02:00,
2013-01-15 00:12:00,41.0,40.0,30.07,NNW,329,1.0,3.0,97,0.05,,,0.76,,2013-01-15 06:12:00,
2013-01-15 00:22:00,41.0,40.0,30.08,NW,310,0.0,2.0,97,0.05,,,0.75,,2013-01-15 06:22:00,
2013-01-15 00:33:00,42.0,41.0,30.07,NNW,329,0.0,1.0,98,0.04,,,0.75,,2013-01-15 06:33:00,
2013-01-15 00:42:00,42.0,41.0,30.07,NNW,329,0.0,1.0,98,0.04,,,0.75,,2013-01-15 06:42:00,
2013-01-15 00:53:00,41.0,40.0,30.07,NW,322,0.0,2.0,98,0.04,,,0.77,,2013-01-15 06:53:00,
2013-01-15 01:02:00,41.0,40.0,30.07,NW,322,0.0,2.0,97,0.06,,,0.79,,2013-01-15 07:02:00,
2013-01-15 01:12:00,41.0,40.0,30.07,NW,322,0.0,2.0,97,0.06,,,0.79,,2013-01-15 07:12:00,
2013-01-15 01:22:00,41.0,40.0,30.08,WNW,285,0.0,3.0,97,0.06,,,0.80,,2013-01-15 07:22:00,
2013-01-15 01:32:00,41.0,40.0,30.07,WSW,251,0.0,1.0,98,0.08,,,0.83,,2013-01-15 07:32:00,
2013-01-15 01:42:00,41.0,40.0,30.07,WSW,251,0.0,1.0,98,0.08,,,0.83,,2013-01-15 07:42:00,
2013-01-15 01:52:00,41.0,40.0,30.07,WSW,251,0.0,0.0,98,0.08,,,0.85,,2013-01-15 07:52:00,
2013-01-15 02:02:00,41.0,40.0,30.06,WSW,251,0.0,0.0,97,0.10,,,0.89,,2013-01-15 08:02:00,
2013-01-15 02:12:00,41.0,40.0,30.06,WSW,251,0.0,0.0,97,0.10,,,0.89,,2013-01-15 08:12:00,
2013-01-15 02:22:00,41.0,40.0,30.06,WSW,256,1.0,2.0,97,0.13,,,0.93,,2013-01-15 08:22:00,
2013-01-15 02:32:00,41.0,40.0,30.07,NW,314,0.0,3.0,97,0.12,,,0.95,,2013-01-15 08:32:00,
2013-01-15 02:42:00,41.0,40.0,30.07,NW,314,0.0,3.0,97,0.12,,,0.95,,2013-01-15 08:42:00,
2013-01-15 02:53:00,41.0,40.0,30.06,North,352,0.0,1.0,98,0.13,,,0.98,,2013-01-15 08:53:00,
2013-01-15 03:02:00,41.0,40.0,30.07,NNW,344,0.0,1.0,98,0.13,,,1.02,,2013-01-15 09:02:00,
2013-01-15 03:12:00,41.0,40.0,30.07,NNW,344,0.0,1.0,98,0.13,,,1.02,,2013-01-15 09:12:00,
2013-01-15 03:22:00,41.0,40.0,30.07,NNW,344,1.0,2.0,97,0.13,,,1.06,,2013-01-15 09:22:00,
2013-01-15 03:33:00,41.0,40.0,30.06,North,349,0.0,3.0,97,0.14,,,1.09,,2013-01-15 09:33:00,
2013-01-15 03:42:00,41.0,40.0,30.06,North,349,0.0,3.0,97,0.14,,,1.09,,2013-01-15 09:42:00,
2013-01-15 03:52:00,41.0,40.0,30.06,North,358,1.0,5.0,97,0.13,,,1.10,,2013-01-15 09:52:00,
2013-01-15 04:02:00,41.0,40.0,30.06,North,4,1.0,3.0,97,0.09,,,1.10,,2013-01-15 10:02:00,
2013-01-15 04:12:00,41.0,40.0,30.06,North,4,1.0,3.0,97,0.09,,,1.10,,2013-01-15 10:12:00,
2013-01-15 04:22:00,41.0,40.0,30.06,NW,325,2.0,5.0,97,0.05,,,1.08,,2013-01-15 10:22:00,
2013-01-15 04:32:00,41.0,40.0,30.06,North,0,0.0,2.0,98,0.03,,,1.08,,2013-01-15 10:32:00,
2013-01-15 04:42:00,41.0,40.0,30.06,North,0,0.0,2.0,98,0.03,,,1.08,,2013-01-15 10:42:00,
2013-01-15 04:52:00,41.0,40.0,30.06,NW,311,0.0,2.0,98,0.01,,,1.07,,2013-01-15 10:52:00,
2013-01-15 05:02:00,41.0,40.0,30.06,NNW,336,0.0,2.0,98,0.01,,,1.07,,2013-01-15 11:02:00,
2013-01-15 05:12:00,41.0,40.0,30.06,NNW,336,0.0,2.0,98,0.01,,,1.07,,2013-01-15 11:12:00,
2013-01-15 05:22:00,41.0,40.0,30.05,NNE,17,1.0,3.0,97,0.01,,,1.07,,2013-01-15 11:22:00,
2013-01-15 05:33:00,41.0,40.0,30.05,North,6,1.0,3.0,97,0.00,,,1.07,,2013-01-15 11:33:00,
2013-01-15 05:42:00,41.0,40.0,30.05,North,6,1.0,3.0,97,0.00,,,1.07,,2013-01-15 11:42:00,
2013-01-15 05:53:00,41.0,40.0,30.06,North,0,1.0,2.0,98,0.01,,,1.08,,2013-01-15 11:53:00,
2013-01-15 06:03:00,42.0,41.0,30.06,NNW,333,2.0,3.0,98,0.01,,,1.08,,2013-01-15 12:03:00,
2013-01-15 06:12:00,42.0,41.0,30.06,NNW,333,2.0,3.0,98,0.01,,,1.08,,2013-01-15 12:12:00,
2013-01-15 06:22:00,41.0,40.0,30.06,NNW,337,0.0,3.0,98,0.01,,,1.08,,2013-01-15 12:22:00,
2013-01-15 06:33:00,41.0,40.0,30.06,North,5,1.0,3.0,98,0.01,,,1.08,,2013-01-15 12:33:00,
2013-01-15 06:42:00,41.0,40.0,30.06,North,5,1.0,3.0,98,0.01,,,1.08,,2013-01-15 12:42:00,
2013-01-15 06:53:00,41.0,40.0,30.07,NNE,23,0.0,2.0,98,0.00,,,1.08,,2013-01-15 12:53:00,
2013-01-15 07:03:00,41.0,40.0,30.07,NNW,345,1.0,3.0,97,0.00,,,1.07,,2013-01-15 13:03:00,
2013-01-15 07:12:00,41.0,40.0,30.07,NNW,345,1.0,3.0,97,0.00,,,1.07,,2013-01-15 13:12:00,
2013-01-15 07:23:00,41.0,40.0,30.07,North,358,1.0,3.0,97,0.00,,,1.05,,2013-01-15 13:23:00,
2013-01-15 07:33:00,41.0,40.0,30.08,NW,318,1.0,2.0,97,0.00,,,1.01,,2013-01-15 13:33:00,
2013-01-15 07:43:00,41.0,40.0,30.08,NW,318,1.0,2.0,97,0.00,,,1.01,,2013-01-15 13:43:00,
2013-01-15 07:53:00,41.0,40.0,30.07,NNW,339,1.0,3.0,97,0.00,,,1.00,,2013-01-15 13:53:00,
2013-01-15 08:02:00,41.0,40.0,30.07,North,7,1.0,3.0,98,0.00,,,0.98,,2013-01-15 14:02:00,
2013-01-15 08:12:00,41.0,40.0,30.07,North,7,1.0,3.0,98,0.00,,,0.98,,2013-01-15 14:12:00,
2013-01-15 08:23:00,42.0,41.0,30.08,North,6,1.0,3.0,98,0.00,,,0.97,,2013-01-15 14:23:00,
2013-01-15 08:33:00,42.0,41.0,30.08,NE,37,0.0,2.0,98,0.00,,,0.95,,2013-01-15 14:33:00,
2013-01-15 08:43:00,42.0,41.0,30.08,NE,37,0.0,2.0,98,0.00,,,0.95,,2013-01-15 14:43:00,
2013-01-15 08:53:00,42.0,41.0,30.08,North,358,0.0,2.0,98,0.01,,,0.95,,2013-01-15 14:53:00,
2013-01-15 09:03:00,42.0,41.0,30.07,ESE,107,0.0,3.0,98,0.01,,,0.94,,2013-01-15 15:03:00,
2013-01-15 09:12:00,42.0,41.0,30.07,ESE,107,0.0,3.0,98,0.01,,,0.94,,2013-01-15 15:12:00,
2013-01-15 09:23:00,42.0,41.0,30.08,NE,34,0.0,2.0,98,0.01,,,0.92,,2013-01-15 15:23:00,
2013-01-15 09:33:00,42.0,41.0,30.07,East,99,2.0,3.0,98,0.01,,,0.89,,2013-01-15 15:33:00,
2013-01-15 09:43:00,42.0,41.0,30.07,East,99,2.0,3.0,98,0.01,,,0.89,,2013-01-15 15:43:00,
2013-01-15 09:53:00,42.0,41.0,30.07,NNW,330,0.0,2.0,98,0.02,,,0.87,,2013-01-15 15:53:00,
2013-01-15 10:02:00,43.0,42.0,30.06,ESE,113,2.0,3.0,98,0.03,,,0.86,,2013-01-15 16:02:00,
2013-01-15 10:12:00,43.0,42.0,30.06,ESE,113,2.0,3.0,98,0.03,,,0.86,,2013-01-15 16:12:00,
2013-01-15 10:22:00,43.0,42.0,30.05,East,89,1.0,3.0,98,0.03,,,0.83,,2013-01-15 16:22:00,
2013-01-15 10:33:00,43.0,42.0,30.05,NE,53,0.0,2.0,98,0.03,,,0.81,,2013-01-15 16:33:00,
2013-01-15 10:42:00,43.0,42.0,30.05,NE,53,0.0,2.0,98,0.03,,,0.81,,2013-01-15 16:42:00,
2013-01-15 10:53:00,44.0,43.0,30.03,East,94,0.0,2.0,98,0.04,,,0.83,,2013-01-15 16:53:00,
2013-01-15 11:03:00,44.0,43.0,30.03,East,95,2.0,3.0,98,0.04,,,0.83,,2013-01-15 17:03:00,
2013-01-15 11:12:00,44.0,43.0,30.03,East,95,2.0,3.0,98,0.04,,,0.83,,2013-01-15 17:12:00,
2013-01-15 11:22:00,45.0,44.0,30.01,ENE,73,0.0,3.0,98,0.04,,,0.83,,2013-01-15 17:22:00,
2013-01-15 11:33:00,45.0,44.0,30.00,East,81,0.0,2.0,98,0.04,,,0.84,,2013-01-15 17:33:00,
2013-01-15 11:42:00,45.0,44.0,30.00,East,81,0.0,2.0,98,0.04,,,0.84,,2013-01-15 17:42:00,
2013-01-15 11:53:00,45.0,44.0,29.99,NNE,25,0.0,1.0,98,0.02,,,0.84,,2013-01-15 17:53:00,
2013-01-15 12:03:00,45.0,44.0,29.98,North,3,0.0,2.0,98,0.02,,,0.84,,2013-01-15 18:03:00,
2013-01-15 12:12:00,45.0,44.0,29.98,North,3,0.0,2.0,98,0.02,,,0.84,,2013-01-15 18:12:00,
2013-01-15 12:23:00,46.0,45.0,29.98,ESE,107,0.0,2.0,98,0.03,,,0.85,,2013-01-15 18:23:00,
2013-01-15 12:33:00,46.0,45.0,29.98,NE,55,0.0,2.0,98,0.03,,,0.86,,2013-01-15 18:33:00,
2013-01-15 12:42:00,46.0,45.0,29.98,NE,55,0.0,2.0,98,0.03,,,0.86,,2013-01-15 18:42:00,
2013-01-15 12:53:00,46.0,45.0,29.97,NNW,337,0.0,2.0,98,0.03,,,0.86,,2013-01-15 18:53:00,
2013-01-15 13:03:00,47.0,46.0,29.97,North,6,0.0,1.0,98,0.02,,,0.86,,2013-01-15 19:03:00,
2013-01-15 13:12:00,47.0,46.0,29.97,North,6,0.0,1.0,98,0.02,,,0.86,,2013-01-15 19:12:00,
2013-01-15 13:23:00,47.0,46.0,29.98,SE,137,2.0,5.0,98,0.02,,,0.85,,2013-01-15 19:23:00,
2013-01-15 13:33:00,47.0,46.0,29.97,NNW,329,0.0,1.0,98,0.00,,,0.85,,2013-01-15 19:33:00,
2013-01-15 13:42:00,47.0,46.0,29.97,NNW,329,0.0,1.0,98,0.00,,,0.85,,2013-01-15 19:42:00,
2013-01-15 13:52:00,47.0,46.0,29.96,NNW,329,0.0,1.0,98,0.00,,,0.84,,2013-01-15 19:52:00,
2013-01-15 14:03:00,48.0,47.0,29.96,NNW,329,0.0,1.0,98,0.00,,,0.84,,2013-01-15 20:03:00,
2013-01-15 14:12:00,48.0,47.0,29.96,NNW,329,0.0,1.0,98,0.00,,,0.84,,2013-01-15 20:12:00,
2013-01-15 14:23:00,48.0,47.0,29.96,North,10,0.0,2.0,98,0.00,,,0.82,,2013-01-15 20:23:00,
2013-01-15 14:33:00,48.0,47.0,29.96,ENE,61,0.0,0.0,98,0.00,,,0.81,,2013-01-15 20:33:00,
2013-01-15 14:43:00,48.0,47.0,29.96,ENE,61,0.0,0.0,98,0.00,,,0.81,,2013-01-15 20:43:00,
2013-01-15 14:53:00,48.0,47.0,29.96,NE,53,0.0,0.0,98,0.00,,,0.80,,2013-01-15 20:53:00,
2013-01-15 15:03:00,48.0,47.0,29.96,East,79,0.0,1.0,98,0.00,,,0.78,,2013-01-15 21:03:00,
2013-01-15 15:12:00,48.0,47.0,29.96,East,79,0.0,1.0,98,0.00,,,0.78,,2013-01-15 21:12:00,
2013-01-15 15:23:00,48.0,47.0,29.96,East,91,1.0,2.0,98,0.00,,,0.75,,2013-01-15 21:23:00,
2013-01-15 15:33:00,48.0,47.0,29.96,East,94,1.0,3.0,98,0.00,,,0.75,,2013-01-15 21:33:00,
2013-01-15 15:43:00,48.0,47.0,29.96,East,94,1.0,3.0,98,0.00,,,0.75,,2013-01-15 21:43:00,
2013-01-15 15:53:00,48.0,47.0,29.96,East,93,0.0,1.0,98,0.00,,,0.75,,2013-01-15 21:53:00,
2013-01-15 16:03:00,49.0,48.0,29.96,ENE,73,0.0,2.0,98,0.00,,,0.75,,2013-01-15 22:03:00,
2013-01-15 16:12:00,49.0,48.0,29.96,ENE,73,0.0,2.0,98,0.00,,,0.75,,2013-01-15 22:12:00,
2013-01-15 16:23:00,49.0,48.0,29.96,East,97,0.0,1.0,98,0.00,,,0.75,,2013-01-15 22:23:00,
2013-01-15 16:33:00,49.0,48.0,29.96,East,97,0.0,0.0,98,0.00,,,0.75,,2013-01-15 22:33:00,
2013-01-15 16:43:00,49.0,48.0,29.96,East,97,0.0,0.0,98,0.00,,,0.75,,2013-01-15 22:43:00,
2013-01-15 16:53:00,49.0,48.0,29.97,NNW,338,1.0,3.0,98,0.00,,,0.75,,2013-01-15 22:53:00,
2013-01-15 17:02:00,49.0,48.0,29.97,West,268,0.0,1.0,98,0.00,,,0.75,,2013-01-15 23:02:00,
2013-01-15 17:12:00,49.0,48.0,29.97,West,268,0.0,1.0,98,0.00,,,0.75,,2013-01-15 23:12:00,
2013-01-15 17:22:00,49.0,48.0,29.97,WSW,256,0.0,1.0,98,0.00,,,0.75,,2013-01-15 23:22:00,
2013-01-15 17:32:00,49.0,48.0,29.97,WSW,256,0.0,0.0,98,0.01,,,0.76,,2013-01-15 23:32:00,
2013-01-15 17:42:00,49.0,48.0,29.97,WSW,256,0.0,0.0,98,0.01,,,0.76,,2013-01-15 23:42:00,
2013-01-15 17:53:00,49.0,48.0,29.97,North,1,0.0,0.0,98,0.01,,,0.76,,2013-01-15 23:53:00,
2013-01-15 18:02:00,49.0,48.0,29.98,North,0,1.0,2.0,98,0.01,,,0.75,,2013-01-16 00:02:00,
2013-01-15 18:12:00,49.0,48.0,29.98,North,0,1.0,2.0,98,0.01,,,0.75,,2013-01-16 00:12:00,
2013-01-15 18:22:00,48.0,47.0,29.98,NW,326,0.0,2.0,98,0.01,,,0.75,,2013-01-16 00:22:00,
2013-01-15 18:32:00,48.0,47.0,29.98,SW,220,0.0,1.0,98,0.00,,,0.75,,2013-01-16 00:32:00,
2013-01-15 18:43:00,48.0,47.0,29.98,SW,220,0.0,1.0,98,0.00,,,0.75,,2013-01-16 00:43:00,
2013-01-15 18:53:00,48.0,47.0,29.97,NNW,334,0.0,0.0,98,0.00,,,0.75,,2013-01-16 00:53:00,
2013-01-15 19:02:00,48.0,47.0,29.96,NNW,334,0.0,1.0,98,0.00,,,0.75,,2013-01-16 01:02:00,
2013-01-15 19:12:00,48.0,47.0,29.96,NNW,334,0.0,1.0,98,0.00,,,0.75,,2013-01-16 01:12:00,
2013-01-15 19:22:00,48.0,47.0,29.96,NNW,334,0.0,0.0,98,0.00,,,0.75,,2013-01-16 01:22:00,
2013-01-15 19:33:00,48.0,47.0,29.96,NNW,335,0.0,2.0,98,0.00,,,0.75,,2013-01-16 01:33:00,
2013-01-15 19:42:00,48.0,47.0,29.96,NNW,335,0.0,2.0,98,0.00,,,0.75,,2013-01-16 01:42:00,
2013-01-15 19:53:00,47.0,46.0,29.96,North,352,1.0,3.0,98,0.00,,,0.74,,2013-01-16 01:53:00,
2013-01-15 20:02:00,47.0,46.0,29.96,North,5,0.0,2.0,98,0.00,,,0.74,,2013-01-16 02:02:00,
2013-01-15 20:12:00,47.0,46.0,29.96,North,5,0.0,2.0,98,0.00,,,0.74,,2013-01-16 02:12:00,
2013-01-15 20:22:00,47.0,46.0,29.96,North,5,0.0,1.0,98,0.00,,,0.74,,2013-01-16 02:22:00,
2013-01-15 20:32:00,46.0,45.0,29.96,North,351,1.0,3.0,98,0.00,,,0.71,,2013-01-16 02:32:00,
2013-01-15 20:42:00,46.0,45.0,29.96,North,351,1.0,3.0,98,0.00,,,0.71,,2013-01-16 02:42:00,
2013-01-15 20:53:00,46.0,45.0,29.95,North,351,0.0,0.0,98,0.00,,,0.68,,2013-01-16 02:53:00,
2013-01-15 21:02:00,46.0,45.0,29.94,North,351,0.0,1.0,98,0.00,,,0.67,,2013-01-16 03:02:00,
2013-01-15 21:12:00,46.0,45.0,29.94,North,351,0.0,1.0,98,0.00,,,0.66,,2013-01-16 03:12:00,
2013-01-15 21:22:00,46.0,45.0,29.94,North,351,0.0,1.0,98,0.00,,,0.66,,2013-01-16 03:22:00,
2013-01-15 21:32:00,47.0,46.0,29.94,North,351,0.0,1.0,98,0.00,,,0.65,,2013-01-16 03:32:00,
2013-01-15 21:42:00,47.0,46.0,29.94,North,351,0.0,1.0,98,0.00,,,0.65,,2013-01-16 03:42:00,
2013-01-15 21:53:00,47.0,46.0,29.93,North,351,0.0,1.0,98,0.00,,,0.64,,2013-01-16 03:53:00,
2013-01-15 22:02:00,47.0,46.0,29.93,NNE,31,0.0,1.0,98,0.00,,,0.61,,2013-01-16 04:02:00,
2013-01-15 22:12:00,47.0,46.0,29.93,NNE,31,0.0,1.0,98,0.00,,,0.61,,2013-01-16 04:12:00,
2013-01-15 22:22:00,47.0,46.0,29.93,NNE,31,0.0,1.0,98,0.00,,,0.59,,2013-01-16 04:22:00,
2013-01-15 22:32:00,47.0,46.0,29.93,WSW,237,0.0,2.0,98,0.00,,,0.59,,2013-01-16 04:32:00,
2013-01-15 22:42:00,47.0,46.0,29.93,WSW,237,0.0,2.0,98,0.00,,,0.59,,2013-01-16 04:42:00,
2013-01-15 22:52:00,47.0,46.0,29.93,West,277,0.0,0.0,98,0.00,,,0.59,,2013-01-16 04:52:00,
2013-01-15 23:03:00,47.0,46.0,29.93,West,277,0.0,0.0,98,0.00,,,0.58,,2013-01-16 05:03:00,
2013-01-15 23:12:00,47.0,46.0,29.93,West,277,0.0,0.0,98,0.00,,,0.58,,2013-01-16 05:12:00,
2013-01-15 23:22:00,47.0,46.0,29.92,West,277,0.0,0.0,98,0.00,,,0.57,,2013-01-16 05:22:00,
2013-01-15 23:32:00,47.0,46.0,29.92,West,277,0.0,1.0,98,0.01,,,0.56,,2013-01-16 05:32:00,
2013-01-15 23:42:00,47.0,46.0,29.92,West,277,0.0,1.0,98,0.01,,,0.56,,2013-01-16 05:42:00,
2013-01-15 23:53:00,47.0,46.0,29.91,West,277,0.0,0.0,98,0.01,,,0.54,,2013-01-16 05:53:00,